GFSMA_500_spd_000.txt.gz
Wind_Speed
33 36 36 37 36 36 31 28 27 28 29 30 31 31 31 32 32 33 33 35 36 38 37 38 38 37 36 35 34 34 34 34 35 30 31 33 31 28 28 27 29 34 35
35 31 36 37 37 36 34 32 31 33 35 37 37 37 38 39 39 40 40 40 41 41 42 41 42 43 43 41 39 37 38 38 36 38 36 36 36 35 34 30 29 30 33
31 36 38 41 40 38 37 35 35 36 39 40 41 42 42 44 45 46 48 49 49 49 49 49 49 50 48 47 46 45 43 41 41 42 41 42 42 40 39 36 34 32 31
38 41 44 41 40 38 37 39 41 43 45 48 49 49 50 51 52 54 55 56 57 57 56 56 56 56 57 56 53 51 49 48 47 45 45 46 43 44 44 43 40 38 36
43 46 42 42 42 43 45 47 49 51 54 55 56 59 61 62 63 64 64 64 64 65 65 65 65 65 64 63 63 61 58 55 53 53 51 49 49 47 46 47 45 44 44
50 49 47 47 50 52 53 55 57 59 61 63 65 67 68 70 71 72 73 74 72 71 71 71 72 72 72 72 71 69 69 67 63 59 57 57 54 53 52 50 49 49 48
46 47 49 53 56 58 60 63 66 69 70 72 74 74 75 76 76 75 75 76 78 79 77 77 77 76 77 78 78 77 76 74 73 70 67 63 61 60 57 55 53 50 51
46 51 54 58 60 63 66 70 74 76 78 79 80 80 81 80 79 79 79 79 79 79 81 81 82 81 81 81 82 82 82 82 79 79 76 72 69 66 64 60 57 54 53
53 57 61 63 65 68 70 75 77 79 83 84 84 85 88 91 92 89 87 85 83 81 80 82 84 85 85 85 85 86 87 85 85 83 82 80 76 73 71 69 65 61 59
59 62 62 63 68 74 78 80 83 88 91 94 94 95 96 95 95 95 94 91 90 90 91 91 91 92 92 91 89 90 90 90 88 87 86 83 81 79 75 75 73 70 65
59 61 66 71 78 82 85 87 92 95 97 96 94 94 93 93 95 97 96 93 92 91 92 94 98 97 97 97 96 93 92 92 91 90 89 86 83 81 83 74 75 76 73
65 71 76 83 88 89 91 93 96 97 96 95 96 94 90 87 83 80 79 76 72 71 75 77 81 85 89 91 92 93 92 90 87 88 87 87 85 83 82 78 76 76 77
73 78 82 86 87 90 94 97 98 101 102 101 94 87 81 71 64 65 61 63 68 71 54 52 56 60 65 71 78 86 89 90 90 86 86 85 86 86 84 80 78 78 76
77 81 85 89 93 95 99 101 101 101 97 87 81 71 64 65 68 59 61 66 67 53 43 40 39 44 47 52 55 59 68 77 85 87 86 87 84 85 86 83 79 76 74
80 85 91 95 99 101 101 102 104 99 80 72 66 61 63 61 57 60 66 55 57 52 47 43 43 43 41 39 41 41 42 49 60 71 78 80 85 86 85 85 82 78 76
87 91 95 97 100 101 102 100 85 75 66 62 60 54 54 58 58 55 55 56 57 58 55 50 44 45 46 43 43 43 39 37 40 46 56 64 71 78 83 83 83 80 78
89 93 94 95 99 100 93 77 65 59 57 51 49 53 56 51 49 53 54 56 55 53 55 51 50 44 46 49 47 47 45 42 39 37 39 44 54 66 77 80 80 80 77
91 92 96 98 99 89 73 60 54 45 40 41 40 41 45 47 50 52 52 49 45 45 48 47 42 41 44 47 50 50 49 47 43 40 39 36 38 49 65 74 78 78 77
92 98 100 99 86 68 52 44 36 32 33 39 41 41 44 49 46 47 43 42 44 47 50 52 46 45 40 42 45 47 50 52 49 45 41 39 37 39 50 63 75 77 77
97 99 97 83 65 48 37 34 35 33 35 39 43 43 50 45 48 43 40 43 46 48 50 51 48 44 42 40 42 45 46 52 54 51 45 40 39 36 36 50 53 69 77
96 95 83 65 49 39 34 35 35 36 39 44 46 46 51 48 47 40 40 42 44 47 47 45 42 40 40 41 40 44 47 48 56 55 50 43 42 41 38 41 47 35 63
94 84 67 51 41 35 33 36 37 39 42 46 46 48 48 47 41 37 39 42 46 49 45 40 35 36 38 42 43 43 46 48 52 57 54 49 45 44 42 42 47 55 53
84 69 53 42 37 33 35 37 38 41 44 48 46 49 46 44 36 36 38 43 47 46 43 35 31 34 35 35 38 39 42 46 46 54 59 53 49 47 45 43 42 48 47
69 56 44 38 34 33 36 36 38 41 45 47 46 50 45 39 34 36 38 44 46 43 39 31 28 26 25 24 25 29 36 39 41 43 46 48 49 48 46 45 51 48 49
58 45 37 33 32 34 36 36 38 41 43 43 44 46 43 35 34 34 39 42 41 39 34 26 21 18 17 20 21 23 26 32 34 36 39 41 45 48 45 42 44 51 48
49 38 34 32 32 33 35 36 38 41 42 41 44 41 41 32 31 32 37 39 38 35 30 22 15 13 12 19 23 23 24 26 30 32 35 37 42 45 44 42 41 39 47

GFSMA_500_spd_003.txt.gz
Wind_Speed
30 32 31 33 29 30 34 37 36 34 34 33 33 33 33 33 32 32 33 33 34 34 33 34 36 37 38 36 35 35 35 36 34 31 31 33 34 32 31 30 35 32 33
25 31 31 33 34 37 40 40 38 36 35 34 34 36 36 37 38 39 39 40 40 40 41 41 42 42 43 44 43 41 41 40 40 40 37 35 35 35 37 34 35 32 35
26 33 30 37 37 40 40 39 38 36 37 39 41 43 45 45 46 46 47 48 48 49 49 49 49 50 50 49 50 50 47 47 45 45 42 41 38 38 40 40 38 35 33
50 35 43 39 43 41 42 42 41 41 45 48 49 50 53 54 54 55 57 58 58 59 59 59 59 58 58 58 56 56 56 54 52 51 49 46 44 44 42 44 43 38 38
40 45 46 47 43 41 43 45 47 49 51 53 56 59 61 63 64 65 66 67 69 70 70 69 68 68 68 68 67 65 63 63 60 59 57 55 51 48 47 48 45 42 42
43 42 42 42 42 45 49 51 53 55 58 62 64 67 69 69 70 71 72 73 75 76 77 78 78 77 76 76 76 74 74 71 69 68 64 63 61 58 55 52 48 45 46
39 40 41 44 47 51 55 57 59 62 65 68 72 73 71 71 74 77 80 81 81 82 84 85 87 88 87 84 82 82 82 80 79 76 74 71 68 66 62 58 53 52 50
40 43 47 51 56 59 59 60 63 66 70 72 74 77 80 81 83 86 88 90 90 89 89 88 89 91 93 95 93 92 89 88 87 85 83 80 76 72 69 65 62 59 56
48 51 56 59 60 58 61 66 70 72 77 80 85 90 93 95 97 98 98 99 98 96 94 93 89 88 90 92 94 97 96 95 94 92 91 88 85 81 77 74 71 66 62
52 55 58 60 61 65 70 74 78 82 88 91 95 98 100 105 108 107 103 100 98 97 97 97 96 95 94 93 93 93 95 97 97 98 96 94 91 88 85 81 80 77 72
56 59 62 65 70 75 78 82 86 90 93 96 98 101 103 102 101 99 97 89 82 80 81 82 81 82 87 94 98 99 98 97 97 99 100 98 94 92 90 86 85 83 79
61 63 67 72 76 79 83 87 91 95 98 100 102 104 100 96 91 84 77 67 58 51 53 56 56 59 64 71 79 91 98 99 101 101 101 100 97 92 92 89 89 86 85
64 68 73 77 80 84 89 93 97 98 101 103 101 96 86 77 69 62 58 54 51 46 46 51 56 56 54 51 52 56 63 76 91 100 100 101 100 95 90 90 88 87 83
69 73 76 79 83 88 92 95 100 105 104 101 88 76 68 59 54 51 49 48 50 52 53 49 42 47 51 53 51 49 47 52 60 71 85 95 95 96 90 88 87 87 84
72 75 79 83 88 92 95 101 105 101 91 78 67 59 54 47 40 39 42 44 45 43 41 44 45 48 48 50 48 48 44 41 46 55 64 74 87 91 91 88 86 83 82
74 79 83 86 90 94 100 104 99 85 71 58 50 42 33 34 37 40 42 46 50 51 46 46 45 45 44 45 47 48 47 42 38 44 52 60 69 79 87 87 87 85 81
79 82 86 90 94 99 102 97 79 63 50 40 37 35 32 36 38 39 46 52 48 52 53 40 43 40 41 41 39 42 47 47 42 39 40 42 49 62 73 79 87 86 83
83 87 89 93 98 100 93 73 57 43 38 37 36 34 35 38 42 43 50 46 47 47 44 39 40 41 43 44 42 40 41 46 49 44 42 39 36 44 60 72 77 82 85
86 88 91 97 98 89 70 56 43 37 37 36 35 36 39 43 45 45 47 44 44 39 41 42 40 43 44 44 43 41 41 41 47 50 47 45 41 37 43 58 71 78 78
86 91 98 97 85 68 56 44 38 34 36 36 37 40 42 47 46 47 45 46 38 39 42 46 47 48 45 43 40 39 40 40 42 47 50 48 46 41 40 43 52 67 77
91 97 96 84 68 57 45 39 35 34 35 36 38 41 44 48 46 48 46 41 38 41 44 48 50 48 43 39 37 37 39 41 38 43 48 50 48 44 41 40 41 44 57
96 95 83 69 58 45 39 35 32 33 35 36 38 41 45 45 44 44 44 38 39 41 46 48 47 45 40 34 32 35 37 40 40 43 46 49 49 47 43 42 40 35 38
93 82 69 59 47 38 35 33 33 35 35 36 37 40 43 43 44 42 39 36 38 43 45 46 44 40 33 30 30 33 38 39 41 41 45 51 48 49 46 44 45 41 41
79 70 61 49 38 34 32 32 33 34 36 37 39 42 39 41 44 41 34 34 38 40 42 43 38 32 24 23 24 26 30 34 39 43 47 46 49 51 50 47 45 44 44
70 63 52 42 35 33 33 33 34 35 35 37 39 38 39 40 41 37 30 32 36 38 40 38 32 27 20 18 18 14 15 21 30 37 40 43 42 49 54 51 49 46 44
65 56 45 37 33 33 33 31 32 33 35 36 37 37 39 39 36 32 28 28 33 34 36 35 30 23 19 14 14 15 14 15 21 28 34 36 38 41 49 55 54 50 46

GFSMA_500_spd_006.txt.gz
Wind_Speed
40 36 26 30 34 34 34 36 38 39 39 40 39 37 35 34 33 34 37 35 37 37 38 38 37 37 37 37 37 38 41 39 37 34 31 33 31 28 29 32 30 37 34
38 23 29 27 45 40 38 42 40 41 41 40 41 38 38 38 38 40 42 44 43 43 43 44 45 45 44 43 43 44 43 45 45 44 40 35 36 35 33 34 34 32 35
44 45 41 52 50 43 42 43 44 40 40 40 44 43 43 45 47 47 48 51 53 53 53 52 53 53 53 53 52 50 49 49 49 50 48 46 42 40 39 38 36 37 35
44 45 44 45 46 45 50 45 40 40 40 42 44 47 48 51 53 56 57 58 60 62 64 62 64 64 63 62 62 61 59 57 56 55 54 52 51 47 44 42 40 40 41
39 37 39 42 46 46 44 43 42 43 45 47 50 52 54 57 60 63 65 67 69 70 72 73 72 74 73 72 71 70 69 68 65 64 63 60 57 56 53 50 45 44 45
39 38 38 41 43 44 45 46 49 52 56 56 57 59 60 63 65 66 68 69 72 74 75 76 78 79 78 78 79 79 78 77 76 74 72 71 67 62 61 58 53 49 49
36 39 41 45 47 50 51 54 58 61 61 61 61 64 66 69 71 73 74 76 79 81 83 86 87 88 89 87 87 86 87 86 84 84 82 80 78 73 68 65 62 58 56
47 49 50 52 53 55 57 58 58 59 64 68 69 70 73 75 78 81 84 86 89 91 93 95 97 100 101 101 100 98 96 94 93 92 91 90 87 83 77 72 70 69 64
49 51 52 53 54 56 58 61 64 67 70 73 76 78 80 84 88 91 95 97 99 100 100 102 103 103 105 106 105 105 105 103 102 101 98 97 96 93 89 82 77 75 73
52 52 54 56 59 60 62 66 69 72 74 79 84 88 91 94 98 100 101 103 104 105 103 100 98 94 93 93 94 98 100 101 106 107 107 104 103 101 98 94 86 80 80
55 57 57 58 60 64 67 70 73 78 82 86 89 93 97 100 102 105 107 104 96 89 84 79 75 71 70 71 75 82 88 94 98 103 108 108 105 106 104 99 94 88 83
57 58 59 61 64 67 71 76 81 85 89 93 95 99 102 105 107 100 86 76 66 59 59 59 58 57 57 58 61 63 65 74 85 92 101 105 107 106 105 101 96 92 87
58 59 62 65 69 74 78 83 87 92 94 96 100 105 107 99 83 70 61 56 52 47 47 47 49 52 52 51 53 58 60 68 69 72 80 92 105 108 104 103 98 92 89
61 62 65 69 74 78 83 88 91 93 98 103 107 100 81 67 57 51 46 42 37 33 33 35 41 43 44 46 45 50 51 53 52 53 55 60 74 100 106 105 101 92 86
61 64 68 74 78 82 86 89 94 100 104 101 85 69 56 47 44 43 41 38 39 34 33 38 42 42 43 45 46 46 48 49 50 48 49 50 52 67 90 102 104 94 87
64 68 72 77 81 85 90 95 101 103 88 72 62 50 42 40 38 37 38 39 41 42 39 42 41 43 43 41 42 40 42 45 49 48 47 50 48 54 69 83 91 97 88
68 73 77 82 85 88 95 102 100 81 67 59 50 43 39 38 36 37 40 43 44 45 48 37 43 41 36 37 39 40 41 43 45 45 47 49 47 48 56 69 76 83 88
74 78 81 84 88 95 100 90 75 66 56 46 42 40 38 38 39 42 44 47 48 47 49 42 36 34 36 37 40 42 42 43 44 47 43 48 48 46 48 57 68 76 80
78 81 84 87 95 98 83 73 66 56 45 42 39 38 39 38 40 43 45 48 48 48 46 42 34 37 40 43 46 48 47 44 43 46 43 45 51 48 45 48 57 67 75
80 83 86 94 95 81 72 65 56 45 41 38 35 36 37 37 40 43 46 47 45 46 44 38 37 40 44 49 51 48 45 42 43 44 44 43 51 51 48 45 47 54 63
83 84 91 95 81 73 66 58 46 40 37 35 36 37 38 39 41 44 45 45 46 44 40 38 39 44 47 48 48 44 40 38 40 42 43 43 47 53 51 47 42 42 48
85 88 95 83 75 67 59 48 41 38 36 35 36 36 37 40 42 42 43 43 43 41 36 38 42 44 45 45 44 38 34 32 35 40 40 44 44 52 53 49 43 38 33
87 93 84 76 70 61 51 42 38 36 36 35 35 36 38 40 40 39 40 43 39 36 35 39 40 43 41 40 36 30 30 29 34 40 42 43 42 46 53 51 46 41 33
91 87 77 71 64 54 45 39 36 35 33 33 35 37 38 38 38 39 40 37 34 33 34 37 39 40 39 34 29 25 24 27 32 37 40 42 42 46 51 52 48 45 41
89 80 73 66 56 46 40 37 34 31 32 32 35 36 36 37 38 38 37 34 30 30 32 35 37 35 34 29 24 21 20 20 25 34 43 42 43 44 48 52 51 48 46
82 74 68 58 48 41 36 32 31 31 30 31 34 34 34 37 36 36 33 30 27 27 30 32 34 32 31 26 20 17 16 13 14 18 32 42 43 43 48 52 53 51 49

GFSMA_500_spd_009.txt.gz
Wind_Speed
28 31 35 42 22 34 36 38 42 45 43 44 43 42 41 38 38 38 41 37 37 39 39 38 39 39 40 39 39 39 37 37 39 37 33 32 34 33 30 30 33 32 32
34 36 37 37 43 44 44 46 48 49 46 44 43 47 44 44 44 42 43 47 44 44 45 45 45 45 46 46 46 47 46 45 43 42 42 40 37 39 36 33 33 37 35
40 45 44 43 44 44 48 49 48 49 49 50 46 45 44 45 45 46 47 49 52 53 55 53 53 55 55 55 53 54 54 55 53 52 49 46 44 43 44 41 38 36 39
37 32 33 35 42 44 43 44 46 48 47 47 46 46 48 49 50 51 54 56 60 59 62 63 63 61 64 65 65 64 63 63 62 61 60 57 52 49 48 48 45 41 41
45 42 38 38 39 41 41 42 44 46 47 47 51 53 56 58 60 61 62 65 67 68 69 69 72 72 73 74 73 74 75 73 72 70 69 67 64 58 55 53 51 49 46
42 42 42 41 44 46 49 51 53 54 54 56 57 56 59 62 64 66 68 69 71 73 77 77 78 78 81 80 80 80 81 80 80 80 79 76 74 70 64 61 58 55 53
42 44 47 50 52 52 55 55 55 55 57 58 61 61 60 63 66 69 72 74 75 77 79 80 83 84 84 85 86 87 87 88 87 86 86 85 83 81 76 70 66 63 60
49 50 50 51 53 54 55 56 58 58 58 59 63 67 65 64 68 74 77 80 84 86 87 89 90 92 93 94 96 98 99 96 96 97 96 94 91 89 87 82 77 72 68
48 51 53 54 54 55 55 56 56 57 59 61 64 68 73 77 80 82 84 87 90 93 95 97 98 100 100 101 103 106 107 106 105 106 105 103 101 98 95 92 87 82 77
52 54 56 57 55 54 55 56 57 60 65 69 73 77 81 84 88 92 95 97 98 102 105 105 106 104 102 102 102 105 108 109 110 111 113 113 109 107 104 101 96 92 87
55 57 58 58 57 56 58 59 62 67 72 76 80 83 86 90 94 98 99 104 104 96 85 81 77 72 71 71 71 74 79 85 90 97 104 111 115 115 114 111 106 100 96
58 58 59 59 59 60 62 66 70 73 78 82 84 88 93 98 102 102 96 86 76 63 58 56 55 55 56 57 57 59 62 63 66 71 78 91 103 111 112 112 108 104 100
60 61 62 62 63 64 68 72 77 80 84 87 92 98 102 98 92 83 74 65 54 44 42 43 43 44 46 46 44 44 48 55 61 61 63 68 76 89 103 108 108 102 101
62 62 64 64 65 69 73 78 81 84 88 95 98 98 91 84 75 66 55 48 43 39 38 37 39 42 44 45 45 45 44 44 47 50 54 61 65 68 78 90 101 103 99
63 65 66 66 69 73 78 81 83 88 96 99 90 84 79 72 60 51 46 44 43 38 35 35 39 42 45 47 46 43 42 43 45 46 47 48 50 54 59 66 75 91 96
65 67 67 70 74 77 80 81 88 97 99 88 81 76 68 57 48 43 42 42 43 44 39 39 42 45 45 46 44 42 41 40 41 43 44 47 49 50 51 53 58 65 76
67 66 69 73 77 79 81 88 96 97 87 81 74 65 53 46 43 40 40 43 43 45 47 42 44 44 45 44 42 39 36 36 37 39 39 41 44 47 50 50 51 54 57
66 68 71 76 77 80 86 91 98 91 79 72 62 51 45 42 39 39 41 42 44 46 49 50 41 44 44 42 38 37 37 38 40 43 43 46 42 42 47 50 50 49 51
68 70 73 78 80 85 92 98 92 81 71 61 51 44 40 38 37 40 42 43 45 47 48 46 42 44 40 38 37 38 41 43 45 47 47 48 45 42 43 48 50 47 47
70 72 77 82 85 89 98 95 82 72 62 51 45 41 38 37 38 40 42 44 47 45 43 44 44 40 36 36 38 42 44 46 45 46 43 45 44 41 42 44 50 47 44
72 75 78 85 89 95 96 87 75 64 54 46 42 40 39 38 39 41 44 45 44 42 43 44 40 36 35 38 42 44 43 43 42 40 36 40 41 40 42 43 48 48 42
75 77 82 91 94 98 88 80 68 57 48 43 40 39 37 38 39 41 41 41 43 42 42 40 36 34 37 41 42 42 41 39 34 34 32 37 42 39 42 44 46 47 41
77 80 85 93 95 97 81 74 61 50 44 41 37 35 36 39 40 41 40 42 41 40 38 37 33 35 38 39 40 37 36 35 27 26 30 40 40 40 39 45 41 46 41
79 83 86 93 95 89 74 64 52 44 39 37 36 36 37 39 39 39 40 39 39 38 35 32 33 34 36 38 37 33 33 28 23 22 28 36 37 36 38 41 38 44 41
79 82 86 93 84 77 64 55 45 40 37 36 36 35 37 39 37 38 38 37 37 34 31 29 30 33 34 34 32 30 30 23 20 22 26 33 34 37 39 38 37 45 42
86 80 82 87 76 69 57 48 42 39 36 34 35 36 34 35 37 38 36 34 33 31 26 26 30 32 32 31 29 27 25 19 18 15 18 24 36 37 35 35 36 45 44

GFSMA_500_spd_012.txt.gz
Wind_Speed
27 27 33 33 38 39 40 43 47 46 45 43 49 48 46 46 43 45 44 43 44 45 43 45 45 42 41 40 41 39 39 38 37 35 34 33 31 34 32 30 30 30 30
31 32 35 35 32 33 33 35 40 43 41 43 45 47 48 49 47 48 46 45 46 46 47 49 47 47 47 48 48 46 46 46 45 44 42 40 39 36 37 35 34 34 32
33 34 35 32 32 30 28 33 43 43 42 40 41 42 44 46 46 48 49 50 52 52 52 52 52 53 52 55 55 54 53 52 53 54 52 49 48 45 43 42 39 38 38
34 36 37 37 37 37 37 37 40 41 44 45 45 46 49 47 49 52 54 55 58 63 61 61 62 61 62 63 64 64 64 65 62 61 60 59 57 55 52 51 48 45 42
35 38 39 40 42 43 44 44 45 45 46 48 50 51 50 50 51 54 56 57 58 61 65 66 65 66 69 71 70 70 74 75 72 71 70 68 67 64 61 58 57 54 50
38 41 41 41 44 47 50 52 53 53 52 51 53 54 54 52 53 56 59 59 61 63 64 68 70 70 71 72 73 74 75 78 80 80 78 75 75 75 71 68 64 62 59
39 42 45 48 50 51 53 55 56 56 52 50 50 51 53 54 54 58 60 64 68 71 73 76 77 79 81 81 81 83 83 82 81 83 86 84 81 81 80 77 74 70 67
44 46 47 49 51 53 54 56 57 56 52 52 54 54 56 58 62 65 69 72 75 78 81 85 88 89 89 90 91 94 95 94 91 90 90 91 90 88 87 86 82 79 76
45 48 50 52 54 55 56 57 57 55 55 55 58 62 65 68 72 77 81 85 88 89 93 96 99 101 102 102 103 104 104 103 102 102 101 100 99 100 97 95 93 88 84
51 53 54 57 59 60 59 59 57 56 57 61 64 68 73 77 82 84 87 89 93 96 98 97 95 93 91 90 93 94 98 103 106 108 110 109 107 108 108 105 103 99 94
54 56 57 59 60 60 60 60 58 59 62 66 70 74 77 81 86 91 93 95 92 86 84 84 79 74 68 64 64 67 72 76 79 85 93 102 109 112 113 115 112 108 104
56 57 58 60 61 60 61 59 60 64 68 71 74 79 85 91 96 98 92 85 81 75 70 65 57 52 50 49 49 50 51 52 56 60 65 72 81 92 107 114 116 113 111
61 60 60 62 63 62 59 61 64 69 72 73 78 87 95 96 96 91 82 77 71 59 51 45 41 41 42 43 44 43 42 42 42 44 45 50 56 64 74 90 105 110 112
62 61 62 64 63 60 60 64 68 72 75 81 90 96 99 97 89 79 73 69 58 46 39 36 36 39 40 42 42 44 43 41 43 45 46 46 45 49 59 66 78 86 93
59 61 64 65 63 62 66 68 72 72 80 88 95 103 104 89 78 71 62 53 47 41 34 33 37 42 44 46 45 46 45 45 44 45 46 46 46 46 47 51 62 69 74
61 63 65 63 63 67 70 74 73 77 84 95 99 106 92 78 68 58 48 43 40 39 38 35 36 40 45 47 48 46 45 44 42 41 42 42 44 46 47 47 48 54 61
62 64 62 62 65 68 74 74 79 77 82 95 98 97 77 68 57 48 42 40 38 38 39 37 38 43 47 49 45 44 43 41 39 38 39 39 38 40 43 46 49 51 51
63 62 64 66 67 70 75 75 79 81 89 97 92 85 70 57 47 42 42 40 39 40 42 43 42 43 44 44 43 43 41 39 36 37 39 39 39 41 43 43 45 50 52
62 66 69 69 70 73 78 79 86 87 93 96 84 72 59 50 43 40 40 40 40 41 43 45 42 40 42 43 42 40 37 34 35 37 40 42 44 45 45 44 42 45 49
67 72 72 71 72 78 82 83 89 91 92 87 73 63 52 46 41 40 39 38 41 43 43 43 42 40 42 41 38 34 32 35 37 40 40 41 42 44 45 45 41 42 45
73 78 76 73 74 79 83 83 84 85 88 79 65 55 47 43 38 37 39 39 42 42 43 44 41 41 38 36 32 32 35 37 37 37 36 38 39 42 46 43 40 42 44
79 90 86 79 82 82 77 87 85 84 80 66 57 48 44 41 38 38 37 38 39 41 41 40 40 38 34 30 31 35 38 37 34 35 33 35 33 37 39 38 42 40 40
85 91 88 85 81 73 79 79 81 78 65 56 50 45 42 40 39 39 40 40 42 43 41 39 36 33 29 31 33 35 36 35 31 32 35 28 30 35 42 44 38 34 36
86 89 85 72 73 73 74 73 74 64 56 51 46 42 40 38 37 38 38 39 40 39 38 36 33 29 29 31 33 34 32 31 30 32 29 22 30 34 38 36 27 30 33
81 80 75 70 74 73 69 60 61 57 48 47 43 40 37 38 39 38 37 38 37 36 35 34 30 26 29 31 33 31 30 27 28 25 25 19 26 36 37 28 24 29 32
67 67 74 74 74 64 59 55 53 50 45 43 40 36 35 37 37 37 37 38 34 32 31 30 26 25 28 30 31 29 27 26 24 21 19 13 15 25 28 28 26 29 33

GFSMA_500_spd_015.txt.gz
Wind_Speed
23 22 25 23 25 26 26 28 30 30 31 35 38 39 40 40 40 40 42 42 41 45 48 47 43 42 41 42 43 42 41 39 38 38 38 36 35 34 32 33 31 30 29
19 19 21 24 26 28 29 30 31 31 34 37 40 42 44 42 40 41 43 45 46 46 46 47 47 46 44 45 47 48 48 47 46 45 46 45 42 42 40 38 36 34 34
19 22 24 27 30 32 32 32 33 34 35 38 41 43 46 47 46 47 47 47 50 51 52 53 53 52 53 52 50 53 55 54 54 54 53 53 50 49 48 46 44 41 39
23 26 29 32 34 36 37 39 39 40 41 44 45 47 48 44 44 46 47 49 50 50 51 51 54 56 59 61 64 63 61 63 62 63 62 60 57 56 55 53 52 51 48
27 30 33 36 38 40 42 43 45 47 49 49 50 50 51 48 45 47 46 47 50 53 54 56 57 59 59 59 60 63 64 65 71 73 71 69 66 66 65 63 61 58 56
33 35 37 39 41 43 45 47 48 50 51 51 52 50 47 47 46 47 48 51 55 59 63 65 66 67 69 70 70 70 70 70 70 73 75 77 75 73 73 72 71 69 64
37 40 42 44 47 48 49 50 51 52 52 53 54 51 47 48 50 52 54 57 62 65 70 74 77 79 80 81 83 83 83 82 81 80 80 81 81 79 79 80 76 75 74
43 45 47 50 52 52 52 53 54 55 56 56 53 50 49 50 53 57 60 64 69 73 78 82 86 88 90 91 92 92 93 95 94 93 91 89 89 89 86 85 84 81 79
46 49 52 55 56 58 58 58 56 56 55 53 52 54 56 59 61 64 69 74 78 83 88 91 92 93 94 94 93 93 95 98 98 100 100 99 97 97 96 94 91 90 86
51 54 56 58 59 59 58 57 57 57 53 52 56 60 63 68 71 73 78 81 85 92 93 89 90 86 80 80 82 85 87 88 89 90 93 96 99 102 103 103 101 98 95
55 57 59 60 60 57 55 56 58 54 53 56 60 64 67 70 73 77 82 89 94 107 90 81 79 75 72 68 66 66 69 72 73 75 78 82 87 92 98 104 107 106 104
58 60 60 59 57 55 55 58 55 53 55 58 65 65 68 75 81 84 88 95 97 95 74 69 65 64 59 54 52 52 51 50 52 56 59 63 69 76 83 88 96 105 108
60 60 58 57 55 55 58 56 55 56 59 61 64 64 71 75 79 86 93 97 100 71 64 57 51 49 46 43 44 41 39 39 39 43 46 50 51 55 60 67 78 88 99
60 58 57 56 56 58 57 55 58 62 64 64 64 69 73 79 82 92 95 100 80 64 53 44 40 39 39 39 39 40 42 39 40 40 43 44 45 44 45 49 52 63 77
57 59 57 58 60 60 58 60 65 68 69 69 70 75 80 81 86 92 98 79 66 55 42 33 32 33 36 38 40 42 41 43 45 45 45 46 48 47 48 48 48 48 53
55 58 60 63 61 62 64 68 72 76 80 77 78 81 81 87 87 90 78 65 57 46 38 33 31 33 35 37 40 43 45 46 47 45 44 45 46 47 47 48 49 49 50
58 59 59 60 63 68 70 73 77 88 90 89 88 87 79 83 82 72 58 54 46 42 38 36 35 36 38 40 41 44 42 42 42 42 43 43 42 41 43 44 46 48 50
60 60 59 62 66 67 71 73 83 87 93 93 88 83 81 83 76 58 48 46 42 40 38 37 36 37 39 40 41 41 40 42 41 40 40 39 38 38 39 40 43 45 46
58 61 63 65 68 73 74 78 79 84 83 82 81 82 77 67 57 45 42 42 39 39 39 40 39 38 39 42 41 40 41 40 38 36 34 35 36 37 39 42 44 44 46
60 64 67 71 77 80 79 83 84 79 77 83 83 79 69 58 48 38 40 39 39 39 39 39 38 40 42 40 41 38 35 34 31 32 34 36 38 39 41 44 43 45 47
66 67 70 77 81 82 84 79 74 78 83 80 69 63 56 49 42 38 37 37 37 38 39 38 40 41 40 38 36 33 29 26 29 33 33 34 33 36 39 40 41 45 47
71 78 86 89 91 89 78 76 72 81 71 63 55 55 50 44 40 38 36 36 37 35 34 36 36 37 36 34 29 25 27 29 29 33 29 32 31 35 37 39 42 45 45
71 80 85 87 84 83 78 72 73 67 60 53 52 49 42 40 37 35 35 36 36 36 38 38 34 34 30 28 23 25 28 30 29 28 29 30 32 35 36 39 43 45 41
77 78 80 84 77 70 74 73 67 60 52 50 49 43 39 36 34 34 35 36 35 36 37 36 34 32 29 24 25 27 27 29 28 28 27 30 31 28 28 38 38 38 36
77 82 86 81 74 80 71 63 57 51 48 47 42 38 34 32 34 35 36 35 34 36 36 34 33 31 26 23 24 27 29 28 27 27 27 25 26 23 24 28 40 40 29
72 83 74 76 76 63 58 53 50 49 46 44 38 35 32 32 33 34 34 33 33 34 33 31 31 30 25 22 24 27 28 28 25 25 22 19 13 10 15 24 23 24 28

GFSMA_500_spd_018.txt.gz
Wind_Speed
14 11 11 15 18 22 25 28 31 32 33 34 35 36 37 38 40 41 42 43 43 43 44 46 45 43 40 40 41 41 41 42 42 43 43 42 40 37 36 36 34 34 33
9 13 16 20 24 26 28 29 30 32 34 36 37 38 39 41 43 45 45 44 44 44 44 46 48 50 48 45 45 46 46 47 46 47 48 48 47 45 42 41 40 39 37
13 17 21 24 26 28 29 31 33 35 36 36 37 39 41 43 46 47 45 43 42 44 46 47 46 48 51 53 52 54 53 54 55 55 55 54 52 51 51 49 47 47 45
17 20 24 28 30 32 33 34 36 38 39 39 41 42 44 46 48 48 46 46 47 47 46 46 47 49 50 50 53 57 58 59 59 61 64 64 62 60 58 58 56 54 52
22 25 29 33 35 37 39 40 42 43 43 43 45 46 48 50 48 44 43 45 47 49 51 54 56 58 58 59 60 59 60 62 63 65 68 72 72 71 68 65 65 63 59
27 31 34 37 40 41 44 46 47 47 48 48 48 48 49 49 45 43 45 48 51 55 58 61 64 66 68 71 72 73 72 72 72 70 71 72 74 76 76 74 75 72 69
33 36 39 42 44 47 48 50 50 50 49 49 48 50 48 44 44 47 50 52 55 58 61 64 66 68 68 70 75 83 87 86 84 83 82 82 80 80 80 80 78 78 79
38 42 45 48 49 50 52 53 53 51 50 49 50 50 44 42 45 48 52 54 56 59 64 70 75 79 82 85 96 99 89 95 97 96 96 95 92 90 89 87 86 85 82
44 47 50 51 54 54 56 57 54 52 51 51 52 47 47 48 51 55 56 57 60 63 65 72 77 81 87 91 101 102 90 88 91 95 99 101 102 101 99 97 95 93 91
47 49 53 55 56 57 57 54 53 53 53 55 51 49 51 55 58 61 65 67 70 73 77 80 83 90 94 99 94 82 77 79 78 82 85 89 94 98 102 101 103 101 99
51 53 56 57 56 56 54 53 53 54 55 53 53 54 57 60 64 69 73 75 79 81 83 83 88 94 96 85 75 71 68 67 66 68 71 74 78 83 89 94 95 100 105
56 57 57 57 57 55 55 56 56 58 56 55 57 61 63 64 71 71 72 77 82 86 86 87 92 88 79 72 62 57 53 51 52 56 60 61 63 67 72 79 84 91 97
58 59 57 58 59 55 58 59 60 59 59 62 63 64 66 70 76 72 72 75 79 85 85 85 82 73 65 56 49 46 42 42 44 46 47 47 49 52 55 60 66 73 82
58 58 59 61 58 57 60 62 61 61 63 65 66 68 70 76 77 76 79 80 79 84 83 73 65 58 51 45 41 40 40 39 40 42 43 45 45 46 46 49 51 56 61
57 61 59 60 59 62 62 60 63 66 67 68 70 72 74 79 84 78 81 86 86 77 73 64 53 45 39 37 38 40 40 41 41 42 43 44 46 47 48 47 47 48 49
58 59 58 59 61 63 62 65 68 70 73 74 79 82 85 88 89 79 82 72 74 71 64 54 44 39 34 35 36 40 42 44 45 46 46 47 47 49 49 50 50 51 50
57 56 59 62 62 62 66 67 70 74 83 85 87 90 90 81 79 74 71 68 67 65 57 44 37 35 34 36 38 40 41 41 43 45 46 47 47 47 47 47 48 49 51
56 59 61 61 61 65 70 72 74 81 85 84 84 81 72 75 78 71 66 65 64 58 51 41 37 36 36 38 37 39 41 43 44 46 45 46 46 45 45 46 46 45 46
59 62 62 63 65 70 74 76 82 85 82 84 76 75 76 76 68 63 64 63 56 51 47 41 38 37 36 37 37 40 40 41 41 41 40 40 40 40 41 40 41 42 42
60 62 65 68 71 71 73 79 84 82 84 78 75 78 76 65 60 62 61 56 49 45 42 40 38 36 36 37 38 38 38 39 36 35 34 33 32 34 35 36 38 40 42
62 65 69 73 77 75 76 81 81 78 79 75 78 72 64 60 60 59 54 48 45 41 39 38 35 35 37 38 37 36 35 31 29 30 30 34 33 35 36 37 39 41 45
66 68 72 75 81 77 77 78 76 74 76 75 64 60 59 58 58 52 47 42 40 39 36 34 33 34 34 34 33 32 30 26 26 32 32 35 30 31 31 34 35 37 41
67 69 71 78 79 85 84 75 72 73 67 61 56 55 56 55 50 45 41 38 39 37 35 32 32 34 31 30 30 27 26 26 28 30 28 30 30 30 31 34 36 37 39
71 74 76 78 83 79 72 73 69 61 53 52 53 53 54 51 45 40 37 37 38 36 35 34 34 33 30 28 27 23 22 24 28 30 26 26 27 29 31 35 36 39 40
72 79 76 79 74 71 74 62 52 51 52 49 49 49 49 46 40 38 36 37 37 35 34 33 34 33 29 27 24 21 22 23 28 30 25 25 27 28 29 28 30 32 32
76 77 78 77 71 72 57 53 51 50 52 50 48 46 45 42 37 36 35 35 33 32 32 34 34 32 29 26 25 20 20 23 26 29 25 24 23 22 23 18 21 27 30

GFSMA_500_spd_021.txt.gz
Wind_Speed
9 8 10 13 16 21 24 26 30 32 34 34 36 38 39 39 40 40 40 41 42 44 45 46 46 46 45 47 47 46 46 43 41 43 46 46 44 44 42 41 42 40 38
4 8 12 17 22 25 29 32 33 35 37 40 41 42 43 43 43 43 44 44 44 43 43 42 42 43 45 46 47 49 50 49 51 50 49 48 48 49 49 48 47 45 44
9 14 19 23 27 29 32 35 37 38 40 41 43 45 45 45 44 45 45 46 45 44 43 42 42 42 43 44 46 47 48 51 52 54 57 57 55 54 55 56 55 52 50
14 19 23 27 30 33 36 38 39 41 42 44 46 47 47 46 45 45 46 46 44 41 42 43 45 46 47 48 50 49 50 51 53 54 54 55 58 61 62 62 61 60 58
19 24 27 31 33 36 38 40 42 44 45 47 47 47 46 45 44 46 46 43 40 42 44 46 48 49 51 53 54 54 56 57 59 61 64 66 65 62 68 68 67 68 66
24 28 31 35 37 39 42 44 46 46 47 47 46 46 44 44 46 46 42 40 42 44 47 50 54 55 57 60 62 65 67 69 71 71 73 73 74 77 75 76 76 72 73
28 32 35 39 42 44 46 47 48 49 48 46 45 44 44 46 47 42 43 46 49 52 56 58 60 63 65 67 70 72 76 79 80 81 79 81 82 87 85 84 84 82 78
34 37 40 43 45 48 49 51 51 50 48 46 46 47 48 50 47 46 48 50 53 54 57 60 64 67 69 70 71 75 78 80 85 87 89 89 92 88 93 94 92 88 86
40 43 46 48 49 50 51 50 48 51 49 49 51 52 53 51 50 51 53 55 56 58 62 65 64 65 67 69 71 73 79 82 86 89 91 92 94 97 93 98 100 98 94
44 47 50 51 51 51 50 51 52 53 52 54 56 56 57 56 57 59 62 64 65 68 70 70 70 72 73 72 74 79 83 85 86 89 91 90 88 85 81 82 93 101 104
48 51 53 53 53 51 53 51 55 56 56 58 60 59 59 62 65 65 64 66 70 71 76 80 82 76 73 79 78 78 80 85 85 83 82 75 72 72 73 73 73 82 98
53 52 51 51 48 50 58 57 57 57 60 62 62 61 64 67 69 71 71 72 74 78 82 85 78 74 77 76 79 79 82 84 81 67 59 54 52 52 52 56 61 65 73
54 51 49 52 51 54 61 60 59 62 64 65 65 67 68 70 73 77 80 81 75 70 71 72 79 79 79 81 83 83 84 78 66 50 46 43 42 41 42 45 48 54 59
53 53 50 51 54 62 62 61 64 65 65 66 69 73 76 78 82 82 79 76 72 70 68 76 84 78 80 82 80 78 72 60 53 44 41 39 38 38 38 40 43 45 49
53 54 57 53 56 60 63 65 66 66 69 72 74 77 78 80 81 79 76 72 70 72 75 84 78 77 78 77 71 66 56 47 49 44 43 41 40 41 41 41 41 41 45
53 56 57 57 59 63 64 65 66 70 73 77 79 84 84 85 85 75 71 74 78 84 83 76 74 76 72 64 60 55 47 45 46 45 44 43 43 43 45 45 46 45 46
58 58 57 60 63 63 66 68 71 73 75 78 81 83 85 85 76 72 76 80 82 78 75 71 71 66 61 57 53 48 45 43 44 43 43 44 45 46 48 49 49 49 48
57 58 60 62 61 64 69 73 76 78 80 81 81 83 85 79 72 76 78 73 70 73 72 67 60 56 54 51 49 43 43 42 42 42 43 43 45 46 47 47 48 48 49
58 58 59 61 65 67 72 76 76 78 83 83 85 82 76 76 78 72 67 66 68 67 63 58 54 52 49 48 44 41 40 40 40 40 39 40 40 38 39 40 40 41 43
57 58 61 65 69 73 76 77 80 81 84 86 85 79 78 74 65 61 62 62 62 59 56 52 49 48 46 44 43 40 39 38 36 37 37 35 32 32 34 34 34 34 36
57 60 64 70 73 73 76 81 80 86 88 85 80 77 67 59 55 57 58 58 58 55 50 47 46 44 43 41 41 40 39 35 35 35 30 32 32 35 36 36 38 37 37
57 62 66 73 71 78 79 80 85 87 79 79 77 61 54 55 56 57 57 55 53 48 46 44 43 42 40 39 39 38 36 34 31 34 27 33 33 36 35 33 32 32 31
63 69 68 70 76 82 80 82 83 83 77 65 57 55 53 56 57 57 55 53 48 46 44 42 40 39 37 37 36 34 34 32 31 29 24 32 35 35 31 29 29 30 32
59 75 67 72 76 77 78 80 77 75 61 58 56 53 54 56 56 55 52 49 45 43 41 40 38 38 37 36 34 31 29 28 29 29 24 30 32 30 26 26 27 30 33
72 69 70 72 76 77 78 72 72 63 58 57 53 53 55 56 54 52 49 45 42 41 39 39 39 38 37 35 31 26 27 25 25 28 25 29 29 25 25 26 26 27 31
65 67 69 72 75 75 72 67 61 58 56 54 53 54 55 55 53 49 45 42 39 38 37 36 36 36 35 32 29 26 23 22 22 25 25 29 27 22 24 24 22 24 27

GFSMA_500_spd_024.txt.gz
Wind_Speed
6 6 4 5 10 15 20 23 27 30 33 36 36 37 38 40 41 40 40 40 40 40 40 40 41 41 41 41 40 39 41 41 42 42 41 42 43 44 46 45 44 43 43
3 3 7 12 16 19 23 28 32 35 37 39 41 42 43 44 44 43 41 41 41 40 41 41 42 41 40 38 37 37 36 37 39 41 43 43 46 46 47 48 49 49 49
4 8 13 17 21 24 29 32 36 39 41 42 43 45 45 45 44 42 41 41 41 42 44 44 43 40 39 38 38 40 41 42 42 42 43 43 44 48 51 51 54 54 54
9 13 18 22 26 29 33 36 39 42 44 46 47 47 46 45 43 42 42 42 43 46 45 43 41 41 42 44 45 46 46 46 47 49 51 53 53 53 52 53 55 58 61
13 18 22 26 29 33 37 40 43 45 48 47 47 46 45 44 42 42 43 45 48 47 44 43 45 46 48 50 51 53 56 58 58 60 61 61 63 63 61 59 58 61 64
19 23 27 31 34 39 42 43 45 47 47 48 48 46 44 42 42 44 46 48 48 46 47 49 52 54 57 60 61 63 64 67 67 68 70 69 68 69 72 75 70 69 67
23 27 31 34 38 42 44 45 47 48 46 47 45 46 45 45 46 47 49 50 50 49 51 53 57 60 63 66 67 67 67 71 72 72 72 74 74 73 74 76 79 82 81
28 31 34 37 41 43 44 45 46 45 46 47 47 50 50 50 51 53 53 53 54 56 58 61 63 65 67 69 71 72 71 74 73 74 74 75 79 80 82 82 83 85 80
33 36 37 41 42 42 42 43 44 42 46 53 52 51 52 53 55 56 56 58 60 63 65 67 68 69 71 72 74 76 77 78 79 74 72 74 74 75 80 82 83 83 90
38 41 44 46 45 43 40 46 48 48 52 56 56 55 57 59 59 60 62 64 68 71 73 75 77 80 79 79 76 71 71 69 70 75 80 75 74 76 80 87 89 89 92
42 44 46 48 48 45 46 46 45 53 59 61 59 61 62 63 65 68 70 73 76 77 80 82 83 83 77 75 73 75 71 73 79 81 80 78 75 79 89 94 94 88 84
43 45 46 49 48 49 46 55 55 58 60 60 62 63 66 68 70 72 75 77 78 80 82 84 83 78 73 73 72 75 78 78 78 80 80 81 85 86 81 73 65 59 61
44 50 50 50 52 55 58 58 58 58 60 63 65 67 70 73 76 79 80 82 84 83 84 82 78 73 72 75 76 78 80 83 83 82 79 76 72 63 55 51 47 44 46
47 51 49 54 53 58 61 60 60 62 63 66 69 72 74 77 81 82 84 86 84 84 81 74 73 76 75 77 78 80 77 71 69 67 64 60 53 46 43 42 40 39 39
55 50 56 57 57 63 61 63 64 64 67 70 74 77 80 83 83 85 87 89 87 81 74 76 75 75 77 77 73 67 63 59 57 55 53 48 46 44 41 41 40 40 39
57 58 62 61 63 63 64 65 64 67 70 73 75 78 81 83 86 87 92 88 80 81 78 74 73 74 72 67 60 57 54 52 50 47 46 45 44 43 43 41 40 39 40
59 64 63 64 66 65 65 64 66 70 74 76 77 78 83 84 86 89 85 83 82 75 69 69 69 67 61 58 54 52 51 48 45 43 42 40 40 42 42 42 42 42 43
65 66 66 66 64 62 62 64 67 71 77 77 80 86 83 84 86 83 83 78 66 63 63 62 61 59 56 53 50 49 48 46 42 40 39 39 39 40 41 42 43 44 45
62 63 63 62 60 61 68 67 70 74 77 80 86 85 87 86 84 80 69 62 59 62 64 62 58 55 51 50 48 48 47 43 41 38 36 37 37 38 40 40 40 39 38
61 60 60 59 59 66 68 73 75 77 82 84 83 85 86 80 73 66 61 59 61 63 63 59 56 52 50 49 48 46 43 42 41 39 37 37 35 34 34 34 35 34 35
56 57 60 63 59 56 63 73 77 80 78 79 83 83 80 72 63 63 59 59 61 62 59 55 52 49 46 45 45 43 42 40 41 39 35 37 32 32 31 29 31 33 35
57 57 64 65 68 74 74 77 81 78 77 79 81 79 70 62 61 59 57 58 59 60 55 51 48 46 43 43 42 41 40 39 37 38 33 34 30 30 27 29 32 33 31
58 59 61 54 73 78 76 75 77 76 77 79 78 67 61 59 58 57 56 57 59 58 52 48 45 42 41 40 39 38 39 37 37 34 28 27 28 30 29 30 32 29 27
55 59 68 68 71 72 74 75 76 77 77 77 68 62 60 60 58 56 57 57 57 56 50 45 42 40 40 40 38 37 37 34 35 34 27 22 26 28 30 29 26 25 25
51 68 68 70 70 72 75 76 78 78 77 71 61 62 59 60 59 55 55 56 56 54 48 43 40 39 40 40 39 37 35 33 30 34 28 21 26 25 30 26 24 23 24
61 65 67 70 72 72 76 77 78 78 73 64 63 59 57 58 56 55 54 55 55 52 46 41 38 39 40 38 38 39 35 31 29 28 28 23 26 24 25 26 22 22 24

GFSMA_500_spd_027.txt.gz
Wind_Speed
12 13 10 9 7 9 12 16 20 24 27 31 34 36 37 39 41 41 41 40 39 38 37 37 38 38 39 41 42 42 42 42 42 41 39 35 34 37 40 42 44 46 48
12 10 8 9 10 13 17 21 25 29 33 35 38 40 41 42 42 42 41 39 37 37 38 39 40 41 42 42 42 41 40 40 40 40 41 41 40 38 39 41 43 46 49
13 10 8 11 15 18 22 26 30 33 37 39 41 43 43 42 41 40 39 38 39 40 41 42 43 43 42 43 41 41 42 43 44 44 45 45 45 45 45 44 46 48 49
10 8 11 15 19 22 26 30 34 37 40 42 43 43 43 42 40 38 39 39 40 42 44 44 44 44 43 44 46 48 50 51 52 53 53 54 55 55 53 55 54 52 55
10 12 16 20 24 26 29 33 37 41 43 43 44 44 43 40 40 42 42 43 44 45 46 46 46 46 48 51 53 55 57 58 60 61 62 63 63 62 64 65 63 61 61
14 16 21 24 27 29 33 38 42 44 44 44 44 43 41 42 44 45 46 46 46 47 48 49 50 52 55 57 60 62 65 67 69 70 72 72 72 72 71 70 69 69 71
18 21 25 28 30 34 38 42 46 46 45 41 43 46 47 46 48 49 49 49 50 51 52 54 56 58 61 63 65 67 69 71 72 73 76 77 80 80 81 78 78 81 77
23 27 30 31 34 37 41 43 45 46 45 46 48 51 51 52 54 51 52 52 54 56 57 59 61 63 66 68 70 71 73 74 76 76 77 79 82 82 84 86 84 81 83
29 31 32 35 38 42 42 46 49 49 48 52 55 56 56 56 56 55 56 58 60 62 64 67 69 71 72 74 76 77 76 77 78 78 77 76 76 77 80 79 80 78 80
31 33 36 37 41 44 47 49 49 50 50 56 57 55 56 57 58 58 59 63 65 68 71 74 75 76 75 77 78 78 76 74 73 71 74 73 77 77 74 75 78 80 82
35 38 39 41 44 47 52 48 51 56 59 63 61 60 59 59 60 62 65 68 71 75 78 79 79 79 80 82 83 79 73 68 68 72 73 75 76 76 76 80 82 84 85
35 38 39 42 49 52 53 52 56 55 60 65 61 60 60 61 64 68 72 74 76 77 81 80 81 84 86 86 83 79 74 73 74 75 78 81 82 83 86 87 88 89 88
34 37 38 46 50 52 56 58 63 62 65 66 63 61 61 64 68 74 77 78 78 83 81 84 87 88 86 80 74 74 76 79 79 79 79 78 76 75 72 68 65 63 65
36 36 44 52 56 57 52 56 66 65 67 65 64 65 67 70 74 80 81 81 84 84 87 87 87 83 76 71 70 70 70 69 66 62 59 57 57 55 53 50 48 47 47
38 44 48 52 56 44 63 66 66 67 66 64 66 71 74 76 80 83 85 85 87 87 86 86 81 73 67 67 68 68 62 58 55 52 50 49 47 46 43 42 41 39 38
41 47 50 56 59 62 66 68 67 68 66 65 68 71 75 78 82 83 85 85 86 86 83 77 68 64 65 68 68 61 56 53 49 46 44 43 42 40 40 39 38 37 36
45 53 56 58 63 65 64 64 64 64 68 69 71 78 79 82 85 83 84 83 84 80 73 65 61 65 66 68 62 55 54 51 47 44 41 39 38 38 37 36 35 35 35
49 57 57 61 63 64 59 61 65 67 68 71 70 78 82 85 82 83 82 82 79 69 65 59 60 62 65 64 56 53 50 48 46 43 39 36 34 34 35 35 34 32 32
53 58 58 59 61 60 61 61 63 66 68 70 76 83 78 80 81 81 81 78 69 62 59 58 59 61 63 58 52 50 47 46 46 43 39 36 33 32 31 31 31 31 32
54 55 58 60 56 59 60 61 63 68 75 80 84 82 81 81 80 80 76 67 61 60 60 59 58 60 60 54 50 47 44 47 45 45 40 38 33 31 28 27 27 28 29
56 58 58 55 56 53 61 65 68 72 75 79 80 80 80 81 80 79 67 60 60 61 59 57 57 59 57 51 47 44 43 43 43 41 37 37 31 30 27 25 24 25 28
57 57 54 56 53 61 66 66 72 77 79 79 78 80 81 81 80 73 61 58 58 59 58 56 55 56 54 49 45 42 42 42 40 40 34 34 29 29 26 24 23 25 27
54 54 51 49 58 59 65 70 75 77 77 77 80 82 82 80 75 63 60 57 56 57 56 54 53 54 52 47 43 41 41 41 41 40 33 28 29 28 26 24 25 26 28
50 50 55 53 61 65 69 72 75 76 78 79 81 82 82 76 66 62 58 54 56 57 55 53 52 52 50 46 42 40 40 39 39 39 33 23 28 25 27 25 25 27 27
54 55 57 61 64 68 72 75 76 77 79 81 83 82 78 67 62 60 55 55 56 56 54 52 52 50 48 44 40 39 39 37 35 36 35 28 24 22 27 27 24 24 23
55 57 60 64 68 72 74 75 77 79 82 84 83 78 68 60 59 58 55 56 55 56 54 53 52 49 46 42 39 38 38 36 34 31 31 28 27 20 21 27 27 21 20

GFSMA_500_spd_030.txt.gz
Wind_Speed
16 15 14 13 12 9 10 12 16 19 24 28 31 33 36 37 38 39 38 39 39 36 34 35 35 36 36 37 39 41 41 41 41 42 43 43 41 38 37 38 41 45 47
12 11 12 13 10 10 12 15 19 23 27 31 34 37 39 40 40 41 42 40 37 38 40 40 40 39 39 39 39 38 39 40 41 42 43 45 47 48 47 44 42 43 45
12 13 12 11 10 12 16 19 23 27 29 34 37 39 39 41 43 44 43 40 40 41 41 43 43 42 40 39 39 40 40 42 44 47 49 50 50 52 55 56 53 51 51
12 13 12 10 13 17 22 24 28 30 33 37 40 42 41 44 44 42 42 41 41 42 43 43 43 43 42 41 42 43 45 47 49 51 54 56 57 58 59 60 62 62 60
15 14 13 14 18 22 27 30 33 35 40 43 45 44 43 43 42 43 42 42 44 45 46 44 44 43 44 46 48 50 52 54 56 58 60 62 64 65 66 65 67 68 69
15 14 15 18 22 27 31 33 36 39 41 45 47 47 43 43 45 47 47 48 48 48 48 47 48 48 50 53 55 57 60 62 65 67 68 69 71 72 73 75 75 76 76
14 16 21 23 27 31 33 36 37 40 44 47 49 48 43 45 52 54 52 52 52 52 50 50 52 56 59 60 61 63 66 68 70 72 74 76 76 77 78 81 82 83 85
17 23 27 30 32 32 34 34 39 42 47 45 49 51 54 57 55 57 56 56 55 54 53 55 60 62 64 67 68 70 71 71 73 74 76 78 80 81 82 82 83 84 87
22 26 29 33 33 34 36 36 40 43 47 48 49 53 52 59 63 62 60 58 56 57 57 60 63 66 69 72 74 76 77 77 79 80 81 82 84 84 84 82 83 87 90
25 28 31 32 34 36 40 39 44 48 52 52 50 54 58 60 65 65 61 57 59 62 64 68 72 74 75 78 80 82 83 86 87 87 85 79 76 75 76 81 85 89 91
28 31 33 33 34 38 41 46 48 55 60 53 50 64 64 64 63 60 59 64 64 66 69 73 76 80 81 83 86 89 89 91 89 83 75 70 72 78 83 83 83 83 81
30 31 33 36 37 42 43 49 56 56 54 49 60 68 66 64 63 59 62 62 67 71 75 78 81 83 86 87 89 90 91 88 79 73 69 68 68 67 67 68 72 81 88
31 33 34 40 36 40 44 51 58 49 53 55 70 69 64 64 63 65 68 68 74 80 82 82 83 85 88 88 89 89 82 73 68 69 70 68 62 59 58 58 58 61 64
33 34 38 38 42 46 48 50 56 44 51 72 67 64 62 64 66 68 69 71 80 86 87 86 88 88 88 88 85 76 66 64 67 69 65 58 55 54 53 52 52 53 55
32 36 38 39 43 49 45 49 42 61 69 70 66 64 62 65 66 69 72 75 85 88 84 87 87 88 86 81 73 63 61 63 67 63 55 53 51 50 48 47 46 46 47
36 41 41 46 45 39 46 48 65 69 69 64 63 66 67 67 68 73 78 82 86 85 85 86 86 83 74 68 66 62 61 64 64 55 52 49 46 45 44 44 43 42 41
40 43 42 39 42 52 60 67 66 67 63 63 62 64 68 71 72 80 82 83 84 84 84 83 80 72 66 63 62 62 62 63 60 53 49 46 43 41 40 40 40 39 38
43 45 48 51 54 59 59 61 63 61 57 58 62 67 77 77 79 85 84 84 84 85 84 81 68 64 63 62 60 59 60 61 56 51 49 45 42 40 37 36 35 36 36
45 47 48 52 54 55 58 62 60 57 60 63 67 69 75 78 84 85 85 84 85 85 83 74 62 61 59 60 57 57 58 59 54 50 47 44 42 40 36 34 32 32 32
45 48 51 54 54 56 58 60 60 60 62 67 69 73 77 81 83 84 84 84 84 82 76 63 59 57 57 57 56 56 56 57 52 50 47 43 41 38 33 31 28 27 28
49 52 55 56 57 53 59 53 60 64 67 70 74 76 79 81 82 83 84 84 84 77 65 60 56 54 56 56 55 55 55 54 51 49 45 41 41 37 31 26 24 24 24
53 55 58 57 57 56 53 52 64 66 67 71 75 78 80 81 82 84 84 83 78 68 60 57 54 55 55 55 53 54 54 51 47 48 44 40 41 38 31 26 23 22 20
55 56 57 58 58 55 57 61 65 67 70 73 77 80 81 82 83 84 83 80 69 61 57 57 55 54 55 54 53 54 52 49 46 45 42 39 38 37 32 27 22 21 21
56 57 59 59 59 59 61 64 67 69 72 76 79 81 82 83 84 83 79 73 61 57 54 56 54 54 54 53 54 53 50 46 44 42 41 38 37 33 31 28 22 20 23
58 59 61 61 60 61 64 66 68 72 76 78 81 82 83 84 82 80 72 63 57 55 55 55 54 54 53 54 54 52 48 44 41 39 38 37 38 31 31 29 24 19 21
60 61 62 61 61 62 64 70 74 77 78 81 82 83 84 83 81 73 64 59 55 57 59 55 55 55 55 55 53 50 45 41 40 37 37 35 35 31 23 30 26 21 20

GFSMA_500_spd_033.txt.gz
Wind_Speed
17 16 13 12 10 10 12 12 12 13 16 20 24 27 30 33 35 34 38 39 40 40 41 40 41 41 39 39 40 40 41 40 39 38 36 36 36 37 38 39 39 40 40
16 14 13 14 13 13 12 13 13 17 20 23 27 30 35 38 39 39 40 39 39 41 41 43 44 44 44 44 44 42 39 37 37 38 39 40 41 42 43 44 45 47 47
13 11 10 12 12 13 14 14 17 21 25 28 31 35 38 40 39 41 42 41 40 43 44 45 46 46 47 47 45 43 42 40 41 42 43 45 47 49 50 52 53 53 52
8 12 13 13 13 15 16 17 22 25 28 29 32 36 39 37 40 42 42 42 44 43 44 45 46 48 47 46 45 46 45 45 47 49 50 51 52 55 56 57 58 60 62
10 12 13 14 15 16 19 22 26 29 30 31 34 37 39 40 41 40 43 46 47 49 47 46 48 49 47 47 47 47 49 51 54 56 57 58 60 61 63 65 66 66 67
13 16 15 17 17 20 23 26 30 33 32 32 36 39 40 41 43 43 46 48 48 50 51 49 48 46 47 48 49 51 55 57 59 61 63 66 67 69 70 71 71 73 74
15 16 17 18 22 25 28 31 36 35 30 33 39 44 48 46 41 43 52 54 55 55 52 49 48 51 51 51 52 57 61 64 65 67 70 72 75 77 79 80 81 82 82
17 17 18 23 26 31 35 37 39 38 36 36 39 45 52 54 54 52 56 62 61 59 56 52 51 49 52 58 61 62 64 68 72 74 77 79 80 82 85 86 87 87 87
19 20 22 27 28 33 37 38 37 37 39 39 45 52 56 56 58 64 64 69 66 61 57 56 58 58 61 66 68 69 69 72 77 80 83 85 88 90 92 95 95 93 91
25 25 27 30 31 34 34 34 37 39 43 46 47 54 62 56 55 58 74 75 70 62 59 58 58 61 68 71 73 75 77 79 82 85 88 91 94 95 92 85 81 77 77
29 32 32 32 33 36 38 38 39 41 43 44 54 60 60 55 56 64 73 68 70 67 63 59 63 67 72 77 80 80 82 84 87 90 93 93 90 82 73 71 71 70 69
35 38 36 33 36 41 41 47 38 42 49 45 53 56 55 54 73 76 77 68 65 65 64 65 69 74 78 80 82 84 84 86 89 91 89 83 73 68 70 70 66 61 59
32 35 39 38 41 35 40 40 44 48 45 55 50 52 55 69 75 78 73 68 65 68 71 73 76 80 80 82 83 85 85 86 86 82 75 66 64 68 69 61 57 55 54
40 35 37 33 34 38 41 44 49 49 48 51 51 55 68 77 74 72 69 68 70 76 76 76 83 84 84 85 85 85 85 81 75 71 65 61 63 67 60 56 55 53 52
40 34 33 35 38 42 43 43 46 50 52 51 63 72 77 75 73 72 68 69 73 75 77 83 84 86 86 86 85 84 80 72 68 64 58 59 63 63 56 53 53 52 50
34 35 35 39 41 42 42 37 46 49 59 67 72 74 74 74 72 69 68 72 73 77 78 83 85 87 87 86 84 78 69 66 62 58 56 58 61 58 53 52 49 48 48
40 39 40 43 45 46 46 50 56 60 64 68 69 71 70 71 71 69 73 74 77 81 82 82 86 88 87 85 82 72 63 58 60 56 55 58 60 55 51 50 46 44 45
42 42 44 45 47 49 50 52 56 57 64 66 68 70 73 65 65 73 75 80 81 83 84 85 85 86 84 79 71 63 57 57 57 57 55 57 58 52 51 49 45 43 40
44 45 46 47 48 47 51 55 56 57 59 67 71 74 70 66 74 76 79 81 84 84 86 88 86 83 80 71 62 57 54 55 56 56 55 57 57 51 48 47 41 39 37
45 45 47 50 52 52 55 55 58 58 56 67 69 69 72 78 80 80 81 83 83 85 87 87 84 78 72 62 57 54 52 55 55 54 55 57 55 51 47 43 38 38 34
45 47 50 53 54 56 57 59 60 62 60 65 70 69 72 75 76 79 81 81 84 85 85 82 78 71 61 55 56 54 54 54 53 55 55 56 53 49 47 44 37 33 30
48 51 54 55 57 58 59 61 62 65 65 66 67 69 72 74 77 79 80 83 84 83 81 75 68 61 57 54 55 55 54 54 52 55 56 54 51 46 44 43 38 33 29
52 54 57 58 59 61 62 63 64 65 65 65 66 69 73 77 80 83 85 85 83 81 79 69 63 56 58 56 57 56 56 55 55 54 55 52 48 45 42 41 38 32 27
55 57 58 60 61 62 62 63 64 64 66 67 71 74 78 80 83 85 86 86 86 83 74 65 60 56 58 55 57 57 56 55 54 53 53 49 44 42 39 39 38 33 27
56 58 60 61 62 62 62 63 65 67 68 71 73 77 81 85 86 87 87 87 84 80 72 64 59 59 58 57 57 58 56 56 53 51 49 46 41 40 38 35 38 33 26
58 61 62 63 63 63 63 64 66 67 70 73 76 81 85 87 87 86 87 85 83 76 73 72 65 59 57 57 56 56 55 53 51 48 44 41 38 39 35 34 34 35 28